Regional Weather Roundup
Issued by NWS

Home | Current Version | Previous Version | Graphics & Text | Print | Product List | Glossary On
Versions: 1 2 3 4 5 6 7 8 9 10 11 12 13 14 15 16 17 18 19 20 21 22 23 24 25 26 27 28 29 30 31 32 33 34 35 36 37 38 39 40 41 42 43 44 45 46 47 48 49 50
000
ASUS43 KOAX 200102
RWRNE

WEATHER ROUNDUP FOR NEBRASKA
NATIONAL WEATHER SERVICE OMAHA NE
800 PM CDT SAT APR 19 2014

NOTES: SATELLITE DATA IS BEING USED TO AUGMENT CLOUD COVER ABOVE
       12000 FEET.
       "FAIR" INDICATES FEW OR NO CLOUDS BELOW 12,000 FEET WITH NO
       SIGNIFICANT WEATHER AND/OR OBSTRUCTIONS TO VISIBILITY.

  * THESE STATIONS DO NOT REPORT WEATHER SUCH AS RAIN...SNOW OR FOG.

NEZ001>004-019>022-054>056-200200-
NEBRASKA PANHANDLE

CITY           SKY/WX    TMP DP  RH WIND       PRES   REMARKS
SCOTTSBLUFF    CLEAR     63  33  32 SE14      29.99S
ALLIANCE       PTCLDY    60  32  34 SE9       29.99F
CHADRON        MOCLDY    58  39  49 SE7       29.97F
KIMBALL        PTCLDY    59  35  39 SE9       30.02R
SIDNEY         PTCLDY    60  34  37 SE12      30.02S
$$

NEZ057>060-069>072-079>082-200200-
SOUTHWEST NEBRASKA

CITY           SKY/WX    TMP DP  RH WIND       PRES   REMARKS
NORTH PLATTE   MOCLDY    62  44  51 NE6       29.99R
IMPERIAL       MOCLDY    63  42  46 NE9       29.99F
LEXINGTON      MOCLDY    67  50  55 N8        29.96F
MCCOOK         PTCLDY    67  49  52 NE12      29.95S
OGALLALA       CLOUDY    65  36  34 E7        30.00S
$$

NEZ005>010-023>029-035>040-094-200200-
NORTH CENTRAL NEBRASKA

CITY           SKY/WX    TMP DP  RH WIND       PRES   REMARKS
VALENTINE      PTCLDY    60  11  14 E7        30.02S
AINSWORTH      MOCLDY    63  27  26 NE8       30.02S
BROKEN BOW     MOCLDY    63  47  55 NE3       29.98R
O`NEILL        PTCLDY    63  37  38 N6        30.00S
ORD            PTCLDY    66  48  52 NE6       29.95F
THEDFORD       MOCLDY    64  33  31 E5        30.01F
$$

NEZ041-046>049-061>064-073>077-083>087-200200-
SOUTH CENTRAL NEBRASKA

CITY           SKY/WX    TMP DP  RH WIND       PRES   REMARKS
GRAND ISLAND   PTCLDY    70  50  49 N10       29.93S
AURORA         CLOUDY    75  50  41 SE13      29.92S
HASTINGS       MOCLDY    74  48  39 N5        29.90F
HEBRON         MOCLDY    76  49  38 S18       29.93S
HOLDREGE       PTCLDY    68  48  48 N9        29.92F
KEARNEY *      CLOUDY    68  50  52 NE12      29.93F
YORK           CLOUDY    75  50  41 S14       29.93S
$$

NEZ011>018-030>034-042>045-200200-
NORTHEAST NEBRASKA

CITY           SKY/WX    TMP DP  RH WIND       PRES   REMARKS
NORFOLK        CLOUDY    69  49  48 N7        29.96S
ALBION         PTCLDY    67  48  50 N5        29.96S
BLAIR          CLOUDY    74  43  32 S13       29.96S
COLUMBUS *     CLOUDY    70  50  49 N5        29.95S
FREMONT        CLOUDY    75  45  34 S7        29.96S
TEKAMAH        CLOUDY    72  45  37 SE8       29.95S
$$

NEZ050>053-065>068-078-088>093-200200-
SOUTHEAST NEBRASKA

CITY           SKY/WX    TMP DP  RH WIND       PRES   REMARKS
LINCOLN        CLOUDY    76  48  37 S15       29.95S
OMAHA EPPLEY   MOCLDY    76  43  30 S16       29.96R
BEATRICE       CLOUDY    76  45  33 S14       29.96F
FALLS CITY     PTCLDY    72  44  36 S15       30.01R
NEBRASKA CITY  MOCLDY    73  43  34 S17       29.99S
PLATTSMOUTH    CLOUDY    74  39  27 S14G21    29.98S
$$

NEZ044-045-051>053-067-200200-
OMAHA AREA

CITY           SKY/WX    TMP DP  RH WIND       PRES   REMARKS
OMAHA EPPLEY   MOCLDY    76  43  30 S16       29.96R
BLAIR          CLOUDY    74  43  32 S13       29.96S
FREMONT        CLOUDY    75  45  34 S7        29.96S
MILLARD        CLOUDY    75  45  33 SE9       29.96R
OFFUTT AFB     CLOUDY    75  45  34 SE16G24   29.97R
PLATTSMOUTH    CLOUDY    74  39  27 S14G21    29.98S
WAHOO          CLOUDY    73  44  35 S8        29.95S
$$



USA.gov is the U.S. government's official web portal to all federal, state and local government web resources and services.